#timestamp,LO_Frequency,Hit,StdDev 
1622631615.3,286046997.4,N
1622631635.1,286046998.0,N
1622631636.0,286046998.0,N
1622631655.8,286046995.5,N
1622631675.7,286046995.7,N
1622631695.5,286046996.1,N
1622631715.3,286046996.2,N
1622631735.2,286046997.3,N
1622631755.0,286046997.1,N
1622631755.9,286046997.1,N
1622631775.8,286046997.7,N
1622631795.6,286046997.5,N
1622631815.4,286046997.7,N
1622631835.3,286046996.5,N
1622631855.1,286046996.5,N
1622631875.8,286046997.0,N
1622631895.7,286046997.4,N
1622631915.5,286046994.9,Y
1622631935.4,286046996.5,P
1622631955.2,286046998.7,N
1622631975.0,286046999.5,N
1622631975.9,286046999.5,N
1622631995.8,286046996.5,Y
1622632015.6,286046998.2,P
1622632035.5,286046998.4,P
1622632055.3,286046999.0,P
1622632075.1,286046999.6,N
1622632095.9,286046997.9,Y
1622632115.7,286046997.1,P
1622632135.5,286046996.9,P
1622632155.4,286046998.2,N
1622632175.2,286047001.1,N
1622632195.1,286046998.7,N
1622632196.0,286046998.7,N
1622632215.8,286047001.1,N
1622632235.6,286046998.8,N
1622632255.5,286046998.1,N
1622632275.3,286047001.0,N
1622632295.1,286047002.4,N
1622632315.9,286047002.7,N
1622632335.7,286047000.9,N
1622632355.6,286046998.4,N
1622632375.4,286046999.2,N
1622632395.2,286046996.5,N
1622632415.1,286046996.6,N
1622632416.0,286046996.6,N
1622632435.8,286046997.4,N
1622632455.6,286046995.5,N
1622632475.5,286046994.9,N
1622632495.3,286046995.0,N
1622632515.2,286046996.8,N
1622632535.9,286046995.4,N
1622632555.7,286046997.7,N
1622632575.6,286046997.4,N
1622632595.4,286046995.0,N
1622632615.2,286046996.1,N
1622632635.1,286046996.3,N
1622632636.0,286046996.3,N
1622632655.8,286046995.2,N
1622632705.7,286046998.0,E
1622632715.6,286046996.9,N
1622632735.4,286047001.1,P
1622632755.3,286047000.9,N
1622632775.1,286046998.2,N
1622632795.9,286046998.1,N
1622632815.7,286046998.6,N
1622632835.5,286047000.3,N
1622632855.4,286047000.2,N
1622632875.2,286047000.7,N
1622632895.0,286046999.9,N
1622632896.0,286046999.9,N
1622632915.8,286047000.5,N
1622632935.6,286047000.7,N
1622632955.5,286046999.9,N
1622632975.3,286046998.3,N
1622632995.1,286046999.0,N
1622633015.9,286046998.6,N
1622633035.7,286046997.4,N
1622633055.5,286046999.2,N
1622633075.4,286047000.8,N
1622633095.2,286047000.7,N
1622633115.1,286047001.1,N
1622633116.0,286047001.1,N
1622633135.8,286047000.8,N
1622633155.6,286046998.4,N
1622633175.5,286046996.7,N
1622633195.3,286046997.7,N
1622633215.2,286046995.0,Y
1622633235.9,286046999.1,P
1622633255.7,286047001.2,P
1622633275.6,286046998.7,N
1622633295.4,286046998.3,N
1622633315.2,286047000.3,N
1622633335.1,286046998.5,N
1622633336.0,286046998.5,N
1622633355.8,286046999.3,N
1622633375.7,286046999.1,N
1622633395.5,286046999.0,N
1622633415.3,286046996.5,Y
1622633435.2,286046998.8,P
1622633455.0,286046998.8,P
1622633455.9,286046998.8,P
1622633475.8,286046999.3,Y
1622633495.6,286047000.3,P
1622633515.4,286046999.7,N
1622633535.3,286047000.0,N
1622633555.1,286047000.8,N
1622633575.8,286047000.5,N
1622633595.7,286046999.7,N
1622633615.5,286047000.2,N
1622633635.4,286046999.9,N
1622633655.2,286047000.2,N
1622633675.0,286046999.8,N
1622633675.9,286046999.8,N
1622633695.8,286047002.5,Y
1622633715.6,286047000.1,P
1622633735.5,286047001.6,P
1622633755.3,286047002.6,P
1622633775.1,286047002.3,N
1622633795.9,286046999.9,N
1622633815.7,286047001.6,N
1622633835.6,286047002.1,N
1622633855.4,286047001.7,N
1622633875.2,286046999.8,N
1622633895.1,286047002.5,N
1622633896.0,286047002.5,N
1622633915.8,286046999.9,N
1622633935.6,286047000.6,N
1622633955.5,286047002.1,N
1622633975.3,286047004.1,Y
1622633995.2,286046999.9,P
1622634015.9,286046999.7,N
1622634035.7,286047000.1,N
1622634055.6,286047000.3,N
1622634075.4,286047002.6,Y
1622634095.3,286047001.7,P
1622634115.1,286047001.7,N
1622634116.0,286047001.7,N
1622634135.8,286047001.3,N
1622634155.7,286047004.3,Y
1622634175.5,286047000.9,P
1622634195.3,286047001.0,P
1622634215.2,286047001.1,P
1622634235.0,286046998.5,Y
1622634235.9,286046998.5,P
1622634255.8,286046999.4,N
1622634275.6,286046999.2,N
1622634295.4,286046996.9,Y
1622634315.3,286046996.6,P
1622634335.1,286046996.8,N
1622634355.9,286046997.3,N
1622634375.7,286046999.4,N
1622634395.5,286046999.2,N
1622634415.4,286046999.1,N
1622634435.2,286046996.8,N
1622634455.0,286046999.4,N
1622634455.9,286046999.4,N
1622634475.8,286046996.5,N
1622634495.6,286046998.5,N
1622634515.5,286046998.9,N
1622634535.3,286046999.6,N
1622634555.1,286046999.1,N
1622634575.9,286046999.6,N
1622634595.7,286046999.5,N
1622634615.5,286047001.0,N
1622634635.4,286047000.5,N
1622634655.2,286047001.1,N
1622634675.0,286046998.3,N
1622634676.0,286046998.3,N
1622634695.8,286047000.5,N
1622634715.6,286047000.1,N
1622634735.5,286047002.3,N
1622634755.3,286047001.0,N
1622634775.1,286047001.0,N
1622634795.9,286046998.5,N
1622634815.7,286047001.2,N
1622634835.5,286046999.0,N
1622634855.4,286047004.0,N
1622634875.2,286047008.9,Y
1622634895.1,286047011.5,P
1622634896.0,286047011.5,N
1622634915.8,286047012.4,N
1622634935.6,286047011.2,N
1622634955.5,286047013.1,N
1622634975.3,286047011.6,N
1622634995.1,286047011.7,N
1622635015.9,286047011.3,N
1622635035.7,286047014.1,Y
1622635055.6,286047005.6,P
1622635075.4,286047005.8,N
1622635095.2,286047003.3,N
1622635115.1,286047005.9,N
1622635116.0,286047005.9,N
1622635135.8,286047007.6,Y
1622635155.7,286047001.0,P
1622635175.5,286047001.1,N
1622635195.3,286046995.4,N
